Date String (YYYY-MM-DD hh:mm:ss) UTC,Instrument flags,Ambient pressure (hPa),Sample flow (lpm),Bypass flow (lpm),Sample temperature (°C),Ambient temperature (°C),ASC tube jacket temperature (°C),LED temperature (°C),Box temperature (°C),Sample RH (%),Span deviation,Mass concentration (μg/m³),Mass concentration (μg/m³),Mass concentration (μg/m³)
DateTimeUTC,F1_M11,P_M11,Q1_M11,Q2_M11,T1_M11,T2_M11,T3_M11,T4_M11,T5_M11,U1_M11,ZSPAN_M11,X0_M11,X2_M11,X1_M11
2022-12-25 08:00:00,,0827.7,5.00,0.00,21.9,20.4,00.0,30.8,23.5,14.3,0000.0,0005.85,0004.24,0004.10
2022-12-25 08:01:00,,0827.7,5.01,0.00,21.9,20.4,00.0,30.8,23.5,14.3,0000.0,0005.86,0004.25,0004.13
2022-12-25 08:02:00,,0827.6,4.97,0.00,21.8,20.3,00.0,30.8,23.5,14.3,0000.0,0005.88,0004.27,0004.14
2022-12-25 08:03:00,,0827.6,4.98,0.00,21.8,20.3,00.0,30.8,23.5,14.4,0000.0,0005.88,0004.29,0004.16
2022-12-25 08:04:00,,0827.6,5.01,0.00,21.8,20.2,00.0,30.7,23.5,14.3,0000.0,0005.87,0004.28,0004.15
2022-12-25 08:05:00,,0827.5,5.03,0.00,21.8,20.2,00.0,30.7,23.4,14.2,0000.0,0005.88,0004.28,0004.14
2022-12-25 08:06:00,,0827.5,5.00,0.00,21.8,20.2,00.0,30.7,23.4,14.0,0000.0,0005.84,0004.25,0004.11
2022-12-25 08:07:00,,0827.5,4.98,0.00,21.7,20.2,00.0,30.7,23.4,14.0,0000.0,0005.78,0004.22,0004.07
2022-12-25 08:08:00,,0827.5,4.98,0.00,21.8,20.7,00.0,30.7,23.6,13.9,0000.0,0005.70,0004.16,0004.03
2022-12-25 08:09:00,,0827.5,5.03,0.00,21.9,21.8,00.0,30.6,23.8,14.0,0000.0,0005.45,0004.12,0003.99
2022-12-25 08:10:00,,0827.5,5.02,0.00,22.0,22.1,00.0,30.7,24.0,13.9,0000.0,0005.43,0004.09,0003.97
2022-12-25 08:11:00,,0827.5,4.96,0.00,22.0,21.8,00.0,30.7,24.0,13.9,0000.0,0005.40,0004.08,0003.96
2022-12-25 08:12:00,,0827.5,4.98,0.00,22.0,21.5,00.0,30.8,23.9,13.9,0000.0,0005.31,0004.03,0003.92
2022-12-25 08:13:00,,0827.5,5.02,0.00,22.0,21.3,00.0,30.8,23.9,13.9,0000.0,0005.15,0003.97,0003.87
2022-12-25 08:14:00,,0827.5,5.02,0.00,22.0,21.1,00.0,30.8,23.8,13.9,0000.0,0005.40,0003.93,0003.83
2022-12-25 08:15:00,,0827.5,5.00,0.00,22.0,21.0,00.0,30.8,23.8,13.8,0000.0,0005.42,0003.90,0003.79
2022-12-25 08:16:00,,0827.5,4.98,0.00,22.0,20.9,00.0,30.8,23.8,13.8,0000.0,0005.35,0003.86,0003.75
2022-12-25 08:17:00,,0827.4,5.00,0.00,22.0,20.8,00.0,30.8,23.8,13.8,0000.0,0005.36,0003.85,0003.74
2022-12-25 08:18:00,,0827.4,5.01,0.00,22.0,20.8,00.0,30.8,23.8,13.8,0000.0,0005.59,0003.86,0003.75
2022-12-25 08:19:00,,0827.4,5.02,0.00,22.0,20.7,00.0,30.8,23.7,13.8,0000.0,0006.24,0003.90,0003.77
2022-12-25 08:20:00,,0827.4,4.98,0.00,22.0,20.7,00.0,30.8,23.7,13.8,0000.0,0006.26,0003.90,0003.78
2022-12-25 08:21:00,,0827.4,4.97,0.00,22.0,20.7,00.0,30.8,23.7,13.8,0000.0,0006.18,0003.90,0003.76
2022-12-25 08:22:00,,0827.4,4.98,0.00,22.0,20.7,00.0,30.8,23.7,13.8,0000.0,0006.18,0003.88,0003.75
2022-12-25 08:23:00,,0827.4,5.00,0.00,22.0,20.7,00.0,30.8,23.7,13.8,0000.0,0007.06,0003.88,0003.75
2022-12-25 08:24:00,,0827.4,5.01,0.00,22.0,20.6,00.0,30.8,23.7,13.9,0000.0,0007.40,0003.89,0003.76
2022-12-25 08:25:00,,0827.5,5.01,0.00,21.9,20.6,00.0,30.8,23.7,13.9,0000.0,0007.17,0003.90,0003.77
2022-12-25 08:26:00,,0827.5,4.98,0.00,21.9,20.6,00.0,30.8,23.7,13.9,0000.0,0007.05,0003.90,0003.77
2022-12-25 08:27:00,,0827.4,4.97,0.00,21.9,20.6,00.0,30.8,23.7,13.9,0000.0,0007.02,0003.89,0003.76
2022-12-25 08:28:00,,0827.4,5.02,0.00,21.9,20.6,00.0,30.8,23.7,14.0,0000.0,0007.02,0003.90,0003.78
2022-12-25 08:29:00,,0827.4,5.01,0.00,21.9,20.5,00.0,30.8,23.7,14.0,0000.0,0006.91,0003.91,0003.80
2022-12-25 08:30:00,,0827.4,4.99,0.00,21.9,20.5,00.0,30.8,23.7,14.0,0000.0,0006.14,0003.90,0003.81
2022-12-25 08:31:00,,0827.4,4.99,0.00,21.9,20.5,00.0,30.8,23.7,13.8,0000.0,0006.16,0003.91,0003.81
2022-12-25 08:32:00,,0827.4,4.98,0.00,21.9,20.5,00.0,30.8,23.6,13.8,0000.0,0006.12,0003.91,0003.82
2022-12-25 08:33:00,,0827.4,5.00,0.00,21.9,20.5,00.0,30.8,23.6,13.9,0000.0,0006.06,0003.90,0003.82
2022-12-25 08:34:00,,0827.3,5.02,0.00,21.9,20.5,00.0,30.8,23.6,14.0,0000.0,0005.13,0003.90,0003.81
2022-12-25 08:35:00,,0827.2,5.01,0.00,21.9,20.4,00.0,30.8,23.6,13.9,0000.0,0004.80,0003.89,0003.81
2022-12-25 08:36:00,,0827.2,4.97,0.00,21.8,20.4,00.0,30.7,23.6,13.8,0000.0,0004.89,0003.88,0003.79
2022-12-25 08:37:00,,0827.3,4.97,0.00,21.9,20.4,00.0,30.7,23.6,13.9,0000.0,0004.89,0003.88,0003.78
2022-12-25 08:38:00,,0827.3,5.02,0.00,21.8,20.3,00.0,30.7,23.6,13.7,0000.0,0005.83,0003.88,0003.78
2022-12-25 08:39:00,,0827.3,5.01,0.00,21.8,20.5,00.0,30.7,23.6,13.9,0000.0,0005.97,0003.85,0003.76
2022-12-25 08:40:00,,0827.3,4.99,0.00,21.9,21.4,00.0,30.7,23.8,14.0,0000.0,0006.24,0003.86,0003.74
2022-12-25 08:41:00,,0827.3,4.97,0.00,22.0,22.1,00.0,30.7,24.0,13.9,0000.0,0006.25,0003.85,0003.73
2022-12-25 08:42:00,,0827.3,5.02,0.00,22.1,21.9,00.0,30.7,24.1,13.9,0000.0,0006.21,0003.84,0003.72
2022-12-25 08:43:00,,0827.3,5.04,0.00,22.1,21.6,00.0,30.8,24.0,13.8,0000.0,0006.17,0003.82,0003.71
2022-12-25 08:44:00,,0827.4,4.98,0.00,22.1,21.4,00.0,30.8,24.0,13.7,0000.0,0006.18,0003.82,0003.70
2022-12-25 08:45:00,,0827.4,4.97,0.00,22.1,21.2,00.0,30.8,23.9,13.8,0000.0,0006.25,0003.83,0003.70
2022-12-25 08:46:00,,0827.4,5.01,0.00,22.1,21.1,00.0,30.8,23.9,13.9,0000.0,0006.22,0003.81,0003.68
2022-12-25 08:47:00,,0827.4,5.04,0.00,22.1,21.0,00.0,30.8,23.9,13.8,0000.0,0006.14,0003.80,0003.67
2022-12-25 08:48:00,,0827.4,5.01,0.00,22.1,21.0,00.0,30.8,23.9,13.8,0000.0,0006.07,0003.78,0003.65
2022-12-25 08:49:00,,0827.3,4.98,0.00,22.1,20.9,00.0,30.8,23.9,13.8,0000.0,0005.28,0003.79,0003.65
2022-12-25 08:50:00,,0827.3,4.97,0.00,22.1,20.9,00.0,30.8,23.8,13.8,0000.0,0005.10,0003.81,0003.66
2022-12-25 08:51:00,,0827.3,5.02,0.00,22.1,20.9,00.0,30.9,23.8,13.8,0000.0,0004.81,0003.79,0003.65
2022-12-25 08:52:00,,0827.2,4.99,0.00,22.1,20.8,00.0,30.9,23.8,13.8,0000.0,0004.74,0003.78,0003.63
2022-12-25 08:53:00,,0827.3,5.01,0.00,22.1,20.7,00.0,30.9,23.8,13.9,0000.0,0004.72,0003.76,0003.62
2022-12-25 08:54:00,,0827.3,4.98,0.00,22.0,20.7,00.0,30.9,23.8,13.9,0000.0,0004.67,0003.74,0003.60
2022-12-25 08:55:00,,0827.4,4.98,0.00,22.0,20.6,00.0,30.9,23.8,13.8,0000.0,0004.60,0003.70,0003.57
2022-12-25 08:56:00,,0827.3,5.02,0.00,22.0,20.6,00.0,30.9,23.8,13.8,0000.0,0004.56,0003.67,0003.54
2022-12-25 08:57:00,,0827.3,5.02,0.00,22.0,20.6,00.0,30.9,23.8,13.6,0000.0,0004.51,0003.63,0003.50
2022-12-25 08:58:00,,0827.3,5.03,0.00,22.0,20.6,00.0,30.8,23.8,13.5,0000.0,0004.37,0003.57,0003.45
2022-12-25 08:59:00,,0827.2,4.97,0.00,22.0,20.6,00.0,30.8,23.8,13.4,0000.0,0004.31,0003.52,0003.39
